Year,Month,Day,Hour,Minute,Value (Times are PST for temperature in C)
2018,07,18,00,00,18.30
2018,07,18,00,01,18.30
2018,07,18,00,02,18.30
2018,07,18,00,03,18.20
2018,07,18,00,04,18.20
2018,07,18,00,05,18.20
2018,07,18,00,06,18.20
2018,07,18,00,07,18.20
2018,07,18,00,08,18.20
2018,07,18,00,09,18.20
2018,07,18,00,10,18.20
2018,07,18,00,11,18.20
2018,07,18,00,12,18.20
2018,07,18,00,13,18.20
2018,07,18,00,14,18.10
2018,07,18,00,15,18.10
2018,07,18,00,16,18.10
2018,07,18,00,17,18.10
2018,07,18,00,18,18.10
2018,07,18,00,19,18.10
2018,07,18,00,20,18.10
2018,07,18,00,21,18.10
2018,07,18,00,22,18.10
2018,07,18,00,23,18.00
2018,07,18,00,24,18.00
2018,07,18,00,25,18.00
2018,07,18,00,26,18.00
2018,07,18,00,27,17.90
2018,07,18,00,28,17.90
2018,07,18,00,29,17.90
2018,07,18,00,30,17.90
2018,07,18,00,31,17.90
2018,07,18,00,32,17.90
2018,07,18,00,33,17.90
2018,07,18,00,34,17.80
2018,07,18,00,35,17.80
2018,07,18,00,36,17.80
2018,07,18,00,37,17.80
2018,07,18,00,38,17.80
2018,07,18,00,39,17.70
2018,07,18,00,40,17.70
2018,07,18,00,41,17.70
2018,07,18,00,42,17.70
2018,07,18,00,43,17.60
2018,07,18,00,44,17.60
2018,07,18,00,45,17.60
2018,07,18,00,46,17.60
2018,07,18,00,47,17.60
2018,07,18,00,48,17.60
2018,07,18,00,49,17.50
2018,07,18,00,50,17.50
2018,07,18,00,51,17.50
2018,07,18,00,52,17.50
2018,07,18,00,53,17.40
2018,07,18,00,54,17.40
2018,07,18,00,55,17.40
2018,07,18,00,56,17.40
2018,07,18,00,57,17.40
2018,07,18,00,58,17.40
2018,07,18,00,59,17.40
2018,07,18,01,00,17.30
2018,07,18,01,01,17.30
2018,07,18,01,02,17.30
2018,07,18,01,03,17.30
2018,07,18,01,04,17.30
2018,07,18,01,05,17.30
2018,07,18,01,06,17.30
2018,07,18,01,07,17.30
2018,07,18,01,08,17.30
2018,07,18,01,09,17.30
2018,07,18,01,10,17.30
2018,07,18,01,11,17.30
2018,07,18,01,12,17.30
2018,07,18,01,13,17.30
2018,07,18,01,14,17.30
2018,07,18,01,15,17.30
2018,07,18,01,16,17.30
2018,07,18,01,17,17.30
2018,07,18,01,18,17.30
2018,07,18,01,19,17.30
2018,07,18,01,20,17.30
2018,07,18,01,21,17.30
2018,07,18,01,22,17.30
2018,07,18,01,23,17.20
2018,07,18,01,24,17.20
2018,07,18,01,25,17.20
2018,07,18,01,26,17.20
2018,07,18,01,27,17.20
2018,07,18,01,28,17.20
2018,07,18,01,29,17.20
2018,07,18,01,30,17.20
2018,07,18,01,31,17.20
2018,07,18,01,32,17.10
2018,07,18,01,33,17.10
2018,07,18,01,34,17.10
2018,07,18,01,35,17.10
2018,07,18,01,36,17.10
2018,07,18,01,37,17.10
2018,07,18,01,38,17.10
2018,07,18,01,39,17.10
2018,07,18,01,40,17.10
2018,07,18,01,41,17.10
2018,07,18,01,42,17.10
2018,07,18,01,43,17.10
2018,07,18,01,44,17.10
2018,07,18,01,45,17.10
2018,07,18,01,46,17.00
2018,07,18,01,47,17.00
2018,07,18,01,48,17.00
2018,07,18,01,49,17.00
2018,07,18,01,50,16.90
2018,07,18,01,51,16.90
2018,07,18,01,52,16.90
2018,07,18,01,53,16.90
2018,07,18,01,54,16.90
2018,07,18,01,55,16.90
2018,07,18,01,56,16.90
2018,07,18,01,57,16.80
2018,07,18,01,58,16.80
2018,07,18,01,59,16.80
2018,07,18,02,00,16.80
2018,07,18,02,01,16.80
2018,07,18,02,02,16.80
2018,07,18,02,03,16.80
2018,07,18,02,04,16.70
2018,07,18,02,05,16.70
2018,07,18,02,06,16.70
2018,07,18,02,07,16.70
2018,07,18,02,08,16.70
2018,07,18,02,09,16.70
2018,07,18,02,10,16.60
2018,07,18,02,11,16.60
2018,07,18,02,12,16.60
2018,07,18,02,13,16.60
2018,07,18,02,14,16.60
2018,07,18,02,15,16.60
2018,07,18,02,16,16.50
2018,07,18,02,17,16.50
2018,07,18,02,18,16.50
2018,07,18,02,19,16.40
2018,07,18,02,20,16.40
2018,07,18,02,21,16.40
2018,07,18,02,22,16.40
2018,07,18,02,23,16.40
2018,07,18,02,24,16.40
2018,07,18,02,25,16.30
2018,07,18,02,26,16.30
2018,07,18,02,27,16.30
2018,07,18,02,28,16.30
2018,07,18,02,29,16.30
2018,07,18,02,30,16.30
2018,07,18,02,31,16.30
2018,07,18,02,32,16.30
2018,07,18,02,33,16.30
2018,07,18,02,34,16.40
2018,07,18,02,35,16.40
2018,07,18,02,36,16.40
2018,07,18,02,37,16.40
2018,07,18,02,38,16.40
2018,07,18,02,39,16.40
2018,07,18,02,40,16.40
2018,07,18,02,41,16.40
2018,07,18,02,42,16.50
2018,07,18,02,43,16.50
2018,07,18,02,44,16.60
2018,07,18,02,45,16.70
2018,07,18,02,46,16.70
2018,07,18,02,47,16.70
2018,07,18,02,48,16.80
2018,07,18,02,49,16.80
2018,07,18,02,50,16.80
2018,07,18,02,51,16.80
2018,07,18,02,52,16.80
2018,07,18,02,53,16.80
2018,07,18,02,54,16.70
2018,07,18,02,55,16.70
2018,07,18,02,56,16.80
2018,07,18,02,57,16.80
2018,07,18,02,58,16.80
2018,07,18,02,59,16.80
2018,07,18,03,00,16.80
2018,07,18,03,01,16.80
2018,07,18,03,02,16.80
2018,07,18,03,03,16.80
2018,07,18,03,04,16.70
2018,07,18,03,05,16.70
2018,07,18,03,06,16.70
2018,07,18,03,07,16.70
2018,07,18,03,08,16.70
2018,07,18,03,09,16.70
2018,07,18,03,10,16.70
2018,07,18,03,11,16.70
2018,07,18,03,12,16.70
2018,07,18,03,13,16.70
2018,07,18,03,14,16.70
2018,07,18,03,15,16.70
2018,07,18,03,16,16.70
2018,07,18,03,17,16.70
2018,07,18,03,18,16.70
2018,07,18,03,19,16.70
2018,07,18,03,20,16.70
2018,07,18,03,21,16.70
2018,07,18,03,22,16.70
2018,07,18,03,23,16.70
2018,07,18,03,24,16.70
2018,07,18,03,25,16.60
2018,07,18,03,26,16.60
2018,07,18,03,27,16.60
2018,07,18,03,28,16.60
2018,07,18,03,29,16.60
2018,07,18,03,30,16.50
2018,07,18,03,31,16.50
2018,07,18,03,32,16.50
2018,07,18,03,33,16.40
2018,07,18,03,34,16.40
2018,07,18,03,35,16.40
2018,07,18,03,36,16.40
2018,07,18,03,37,16.30
2018,07,18,03,38,16.30
2018,07,18,03,39,16.30
2018,07,18,03,40,16.30
2018,07,18,03,41,16.40
2018,07,18,03,42,16.40
2018,07,18,03,43,16.40
2018,07,18,03,44,16.40
2018,07,18,03,45,16.40
2018,07,18,03,46,16.40
2018,07,18,03,47,16.40
2018,07,18,03,48,16.40
2018,07,18,03,49,16.40
2018,07,18,03,50,16.40
2018,07,18,03,51,16.40
2018,07,18,03,52,16.40
2018,07,18,03,53,16.40
2018,07,18,03,54,16.40
2018,07,18,03,55,16.40
2018,07,18,03,56,16.40
2018,07,18,03,57,16.40
2018,07,18,03,58,16.40
2018,07,18,03,59,16.40
2018,07,18,04,00,16.40
2018,07,18,04,01,16.40
2018,07,18,04,02,16.40
2018,07,18,04,03,16.30
2018,07,18,04,04,16.30
2018,07,18,04,05,16.30
2018,07,18,04,06,16.30
2018,07,18,04,07,16.30
2018,07,18,04,08,16.30
2018,07,18,04,09,16.20
2018,07,18,04,10,16.20
2018,07,18,04,11,16.20
2018,07,18,04,12,16.20
2018,07,18,04,13,16.20
2018,07,18,04,14,16.20
2018,07,18,04,15,16.10
2018,07,18,04,16,16.10
2018,07,18,04,17,16.10
2018,07,18,04,18,16.10
2018,07,18,04,19,16.10
2018,07,18,04,20,16.10
2018,07,18,04,21,16.10
2018,07,18,04,22,16.00
2018,07,18,04,23,16.00
2018,07,18,04,24,16.00
2018,07,18,04,25,15.90
2018,07,18,04,26,15.90
2018,07,18,04,27,15.90
2018,07,18,04,28,15.90
2018,07,18,04,29,15.90
2018,07,18,04,30,15.80
2018,07,18,04,31,15.80
2018,07,18,04,32,15.80
2018,07,18,04,33,15.80
2018,07,18,04,34,15.80
2018,07,18,04,35,15.80
2018,07,18,04,36,15.80
2018,07,18,04,37,15.80
2018,07,18,04,38,15.80
2018,07,18,04,39,15.80
2018,07,18,04,40,15.70
2018,07,18,04,41,15.70
2018,07,18,04,42,15.70
2018,07,18,04,43,15.70
2018,07,18,04,44,15.70
2018,07,18,04,45,15.60
2018,07,18,04,46,15.60
2018,07,18,04,47,15.60
2018,07,18,04,48,15.60
2018,07,18,04,49,15.60
2018,07,18,04,50,15.60
2018,07,18,04,51,15.60
2018,07,18,04,52,15.60
2018,07,18,04,53,15.60
2018,07,18,04,54,15.60
2018,07,18,04,55,15.60
2018,07,18,04,56,15.50
2018,07,18,04,57,15.50
2018,07,18,04,58,15.50
2018,07,18,04,59,15.50
2018,07,18,05,00,15.50
2018,07,18,05,01,15.40
2018,07,18,05,02,15.40
2018,07,18,05,03,15.40
2018,07,18,05,04,15.40
2018,07,18,05,05,15.40
2018,07,18,05,06,15.30
2018,07,18,05,07,15.30
2018,07,18,05,08,15.30
2018,07,18,05,09,15.30
2018,07,18,05,10,15.30
2018,07,18,05,11,15.20
2018,07,18,05,12,15.20
2018,07,18,05,13,15.20
2018,07,18,05,14,15.20
2018,07,18,05,15,15.20
2018,07,18,05,16,15.20
2018,07,18,05,17,15.20
2018,07,18,05,18,15.20
2018,07,18,05,19,15.20
2018,07,18,05,20,15.20
2018,07,18,05,21,15.10
2018,07,18,05,22,15.10
2018,07,18,05,23,15.10
2018,07,18,05,24,15.10
2018,07,18,05,25,15.10
2018,07,18,05,26,15.10
2018,07,18,05,27,15.10
2018,07,18,05,28,15.10
2018,07,18,05,29,15.10
2018,07,18,05,30,15.00
2018,07,18,05,31,15.00
2018,07,18,05,32,15.00
2018,07,18,05,33,14.90
2018,07,18,05,34,14.90
2018,07,18,05,35,14.90
2018,07,18,05,36,14.90
2018,07,18,05,37,14.90
2018,07,18,05,38,14.90
2018,07,18,05,39,14.80
2018,07,18,05,40,14.80
2018,07,18,05,41,14.80
2018,07,18,05,42,14.80
2018,07,18,05,43,14.80
2018,07,18,05,44,14.80
2018,07,18,05,45,14.80
2018,07,18,05,46,14.80
2018,07,18,05,47,14.80
2018,07,18,05,48,14.80
2018,07,18,05,49,14.80
2018,07,18,05,50,14.70
2018,07,18,05,51,14.70
2018,07,18,05,52,14.70
2018,07,18,05,53,14.70
2018,07,18,05,54,14.70
2018,07,18,05,55,14.70
2018,07,18,05,56,14.70
2018,07,18,05,57,14.70
2018,07,18,05,58,14.70
2018,07,18,05,59,14.70
2018,07,18,06,00,14.70
2018,07,18,06,01,14.70
2018,07,18,06,02,14.70
2018,07,18,06,03,14.70
2018,07,18,06,04,14.70
2018,07,18,06,05,14.70
2018,07,18,06,06,14.70
2018,07,18,06,07,14.70
2018,07,18,06,08,14.70
2018,07,18,06,09,14.70
2018,07,18,06,10,14.70
2018,07,18,06,11,14.70
2018,07,18,06,12,14.70
2018,07,18,06,13,14.70
2018,07,18,06,14,14.70
2018,07,18,06,15,14.70
2018,07,18,06,16,14.70
2018,07,18,06,17,14.70
2018,07,18,06,18,14.70
2018,07,18,06,19,14.70
2018,07,18,06,20,14.70
2018,07,18,06,21,14.70
2018,07,18,06,22,14.70
2018,07,18,06,23,14.70
2018,07,18,06,24,14.70
2018,07,18,06,25,14.70
2018,07,18,06,26,14.70
2018,07,18,06,27,14.70
2018,07,18,06,28,14.70
2018,07,18,06,29,14.70
2018,07,18,06,30,14.70
2018,07,18,06,31,14.70
2018,07,18,06,32,14.70
2018,07,18,06,33,14.70
2018,07,18,06,34,14.70
2018,07,18,06,35,14.70
2018,07,18,06,36,14.70
2018,07,18,06,37,14.70
2018,07,18,06,38,14.70
2018,07,18,06,39,14.70
2018,07,18,06,40,14.70
2018,07,18,06,41,14.70
2018,07,18,06,42,14.70
2018,07,18,06,43,14.80
2018,07,18,06,44,14.80
2018,07,18,06,45,14.80
2018,07,18,06,46,14.80
2018,07,18,06,47,14.90
2018,07,18,06,48,15.00
2018,07,18,06,49,15.00
2018,07,18,06,50,15.20
2018,07,18,06,51,15.30
2018,07,18,06,52,15.30
2018,07,18,06,53,15.40
2018,07,18,06,54,15.50
2018,07,18,06,55,15.60
2018,07,18,06,56,15.60
2018,07,18,06,57,15.70
2018,07,18,06,58,15.80
2018,07,18,06,59,15.90
2018,07,18,07,00,16.00
2018,07,18,07,01,16.20
2018,07,18,07,02,16.30
2018,07,18,07,03,16.50
2018,07,18,07,04,16.60
2018,07,18,07,05,16.70
2018,07,18,07,06,16.80
2018,07,18,07,07,16.90
2018,07,18,07,08,17.00
2018,07,18,07,09,17.00
2018,07,18,07,10,17.10
2018,07,18,07,11,17.00
2018,07,18,07,12,16.90
2018,07,18,07,13,16.80
2018,07,18,07,14,16.70
2018,07,18,07,15,16.70
2018,07,18,07,16,16.70
2018,07,18,07,17,16.60
2018,07,18,07,18,16.60
2018,07,18,07,19,16.60
2018,07,18,07,20,16.50
2018,07,18,07,21,16.50
2018,07,18,07,22,16.50
2018,07,18,07,23,16.40
2018,07,18,07,24,16.30
2018,07,18,07,25,16.30
2018,07,18,07,26,16.20
2018,07,18,07,27,16.20
2018,07,18,07,28,16.20
2018,07,18,07,29,16.10
2018,07,18,07,30,16.10
2018,07,18,07,31,16.10
2018,07,18,07,32,16.10
2018,07,18,07,33,16.20
2018,07,18,07,34,16.20
2018,07,18,07,35,16.20
2018,07,18,07,36,16.30
2018,07,18,07,37,16.30
2018,07,18,07,38,16.30
2018,07,18,07,39,16.30
2018,07,18,07,40,16.30
2018,07,18,07,41,16.30
2018,07,18,07,42,16.30
2018,07,18,07,43,16.30
2018,07,18,07,44,16.30
2018,07,18,07,45,16.30
2018,07,18,07,46,16.40
2018,07,18,07,47,16.30
2018,07,18,07,48,16.30
2018,07,18,07,49,16.30
2018,07,18,07,50,16.30
2018,07,18,07,51,16.40
2018,07,18,07,52,16.40
2018,07,18,07,53,16.40
2018,07,18,07,54,16.50
2018,07,18,07,55,16.50
2018,07,18,07,56,16.50
2018,07,18,07,57,16.60
2018,07,18,07,58,16.60
2018,07,18,07,59,16.60
2018,07,18,08,00,16.60
2018,07,18,08,01,16.60
2018,07,18,08,02,16.60
2018,07,18,08,03,16.60
2018,07,18,08,04,16.60
2018,07,18,08,05,16.60
2018,07,18,08,06,16.60
2018,07,18,08,07,16.60
2018,07,18,08,08,16.60
2018,07,18,08,09,16.60
2018,07,18,08,10,16.60
2018,07,18,08,11,16.60
2018,07,18,08,12,16.60
2018,07,18,08,13,16.70
2018,07,18,08,14,16.70
2018,07,18,08,15,16.70
2018,07,18,08,16,16.70
2018,07,18,08,17,16.70
2018,07,18,08,18,16.70
2018,07,18,08,19,16.70
2018,07,18,08,20,16.60
2018,07,18,08,21,16.60
2018,07,18,08,22,16.60
2018,07,18,08,23,16.60
2018,07,18,08,24,16.60
2018,07,18,08,25,16.60
2018,07,18,08,26,16.50
2018,07,18,08,27,16.50
2018,07,18,08,28,16.50
2018,07,18,08,29,16.50
2018,07,18,08,30,16.50
2018,07,18,08,31,16.50
2018,07,18,08,32,16.60
2018,07,18,08,33,16.60
2018,07,18,08,34,16.70
2018,07,18,08,35,16.80
2018,07,18,08,36,16.90
2018,07,18,08,37,16.90
2018,07,18,08,38,17.00
2018,07,18,08,39,17.10
2018,07,18,08,40,17.10
2018,07,18,08,41,17.20
2018,07,18,08,42,17.30
2018,07,18,08,43,17.40
2018,07,18,08,44,17.50
2018,07,18,08,45,17.50
2018,07,18,08,46,17.60
2018,07,18,08,47,17.60
2018,07,18,08,48,17.60
2018,07,18,08,49,17.60
2018,07,18,08,50,17.70
2018,07,18,08,51,17.60
2018,07,18,08,52,17.60
2018,07,18,08,53,17.60
2018,07,18,08,54,17.60
2018,07,18,08,55,17.60
2018,07,18,08,56,17.70
2018,07,18,08,57,17.80
2018,07,18,08,58,17.80
2018,07,18,08,59,17.80
2018,07,18,09,00,17.90
2018,07,18,09,01,17.90
2018,07,18,09,02,17.90
2018,07,18,09,03,17.90
2018,07,18,09,04,18.00
2018,07,18,09,05,18.00
2018,07,18,09,06,18.10
2018,07,18,09,07,18.20
2018,07,18,09,08,18.20
2018,07,18,09,09,18.10
2018,07,18,09,10,18.10
2018,07,18,09,11,18.00
2018,07,18,09,12,17.90
2018,07,18,09,13,18.00
2018,07,18,09,14,18.00
2018,07,18,09,15,18.00
2018,07,18,09,16,18.10
2018,07,18,09,17,18.10
2018,07,18,09,18,18.20
2018,07,18,09,19,18.20
2018,07,18,09,20,18.20
2018,07,18,09,21,18.30
2018,07,18,09,22,18.40
2018,07,18,09,23,18.40
2018,07,18,09,24,18.40
2018,07,18,09,25,18.40
2018,07,18,09,26,18.40
2018,07,18,09,27,18.30
2018,07,18,09,28,18.20
2018,07,18,09,29,18.20
2018,07,18,09,30,18.20
2018,07,18,09,31,18.30
2018,07,18,09,32,18.40
2018,07,18,09,33,18.50
2018,07,18,09,34,18.70
2018,07,18,09,35,18.80
2018,07,18,09,36,18.80
2018,07,18,09,37,18.70
2018,07,18,09,38,18.80
2018,07,18,09,39,18.80
2018,07,18,09,40,18.80
2018,07,18,09,41,18.90
2018,07,18,09,42,19.00
2018,07,18,09,43,19.10
2018,07,18,09,44,19.10
2018,07,18,09,45,19.20
2018,07,18,09,46,19.20
2018,07,18,09,47,19.20
2018,07,18,09,48,19.20
2018,07,18,09,49,19.20
2018,07,18,09,50,19.20
2018,07,18,09,51,19.20
2018,07,18,09,52,19.30
2018,07,18,09,53,19.30
2018,07,18,09,54,19.30
2018,07,18,09,55,19.40
2018,07,18,09,56,19.40
2018,07,18,09,57,19.50
2018,07,18,09,58,19.50
2018,07,18,09,59,19.60
2018,07,18,10,00,19.60
2018,07,18,10,01,19.60
2018,07,18,10,02,19.60
2018,07,18,10,03,19.60
2018,07,18,10,04,19.70
2018,07,18,10,05,19.70
2018,07,18,10,06,19.80
2018,07,18,10,07,19.70
2018,07,18,10,08,19.70
2018,07,18,10,09,19.70
2018,07,18,10,10,19.60
2018,07,18,10,11,19.50
2018,07,18,10,12,19.60
2018,07,18,10,13,19.60
2018,07,18,10,14,19.70
2018,07,18,10,15,19.80
2018,07,18,10,16,19.90
2018,07,18,10,17,19.80
2018,07,18,10,18,19.80
2018,07,18,10,19,19.80
2018,07,18,10,20,19.70
2018,07,18,10,21,19.70
2018,07,18,10,22,19.70
2018,07,18,10,23,19.80
2018,07,18,10,24,19.80
2018,07,18,10,25,19.80
2018,07,18,10,26,19.80
2018,07,18,10,27,19.80
2018,07,18,10,28,19.70
2018,07,18,10,29,19.60
2018,07,18,10,30,19.60
2018,07,18,10,31,19.60
2018,07,18,10,32,19.70
2018,07,18,10,33,19.70
2018,07,18,10,34,19.70
2018,07,18,10,35,19.90
2018,07,18,10,36,20.00
2018,07,18,10,37,20.10
2018,07,18,10,38,20.10
2018,07,18,10,39,20.00
2018,07,18,10,40,19.90
2018,07,18,10,41,19.80
2018,07,18,10,42,19.90
2018,07,18,10,43,19.90
2018,07,18,10,44,19.90
2018,07,18,10,45,20.00
2018,07,18,10,46,20.00
2018,07,18,10,47,19.90
2018,07,18,10,48,20.00
2018,07,18,10,49,20.00
2018,07,18,10,50,20.10
2018,07,18,10,51,20.20
2018,07,18,10,52,20.20
2018,07,18,10,53,20.20
2018,07,18,10,54,20.30
2018,07,18,10,55,20.30
2018,07,18,10,56,20.40
2018,07,18,10,57,20.40
2018,07,18,10,58,20.40
2018,07,18,10,59,20.40
2018,07,18,11,00,20.40
2018,07,18,11,01,20.30
2018,07,18,11,02,20.30
2018,07,18,11,03,20.40
2018,07,18,11,04,20.50
2018,07,18,11,05,20.60
2018,07,18,11,06,20.50
2018,07,18,11,07,20.50
2018,07,18,11,08,20.60
2018,07,18,11,09,20.60
2018,07,18,11,10,20.50
2018,07,18,11,11,20.50
2018,07,18,11,12,20.60
2018,07,18,11,13,20.60
2018,07,18,11,14,20.60
2018,07,18,11,15,20.60
2018,07,18,11,16,20.60
2018,07,18,11,17,20.70
2018,07,18,11,18,20.70
2018,07,18,11,19,20.70
2018,07,18,11,20,20.70
2018,07,18,11,21,20.80
2018,07,18,11,22,20.80
2018,07,18,11,23,20.90
2018,07,18,11,24,20.90
2018,07,18,11,25,21.10
2018,07,18,11,26,21.10
2018,07,18,11,27,21.20
2018,07,18,11,28,21.20
2018,07,18,11,29,21.10
2018,07,18,11,30,21.10
2018,07,18,11,31,21.10
2018,07,18,11,32,21.20
2018,07,18,11,33,21.20
2018,07,18,11,34,21.20
2018,07,18,11,35,21.00
2018,07,18,11,36,20.90
2018,07,18,11,37,20.80
2018,07,18,11,38,20.90
2018,07,18,11,39,21.10
2018,07,18,11,40,21.10
2018,07,18,11,41,21.10
2018,07,18,11,42,21.00
2018,07,18,11,43,21.00
2018,07,18,11,44,21.10
2018,07,18,11,45,21.30
2018,07,18,11,46,21.40
2018,07,18,11,47,21.50
2018,07,18,11,48,21.60
2018,07,18,11,49,21.70
2018,07,18,11,50,21.70
2018,07,18,11,51,21.70
2018,07,18,11,52,21.70
2018,07,18,11,53,21.70
2018,07,18,11,54,21.70
2018,07,18,11,55,21.70
2018,07,18,11,56,21.80
2018,07,18,11,57,21.80
2018,07,18,11,58,21.70
2018,07,18,11,59,21.80
2018,07,18,12,00,21.80
2018,07,18,12,01,21.90
2018,07,18,12,02,21.90
2018,07,18,12,03,21.90
2018,07,18,12,04,21.80
2018,07,18,12,05,21.80
2018,07,18,12,06,21.80
2018,07,18,12,07,21.80
2018,07,18,12,08,21.80
2018,07,18,12,09,21.70
2018,07,18,12,10,21.50
2018,07,18,12,11,21.50
2018,07,18,12,12,21.60
2018,07,18,12,13,21.50
2018,07,18,12,14,21.50
2018,07,18,12,15,21.50
2018,07,18,12,16,21.50
2018,07,18,12,17,21.60
2018,07,18,12,18,21.70
2018,07,18,12,19,21.70
2018,07,18,12,20,21.80
2018,07,18,12,21,21.80
2018,07,18,12,22,21.90
2018,07,18,12,23,21.80
2018,07,18,12,24,21.80
2018,07,18,12,25,21.80
2018,07,18,12,26,21.70
2018,07,18,12,27,21.70
2018,07,18,12,28,21.80
2018,07,18,12,29,21.90
2018,07,18,12,30,22.00
2018,07,18,12,31,22.20
2018,07,18,12,32,22.30
2018,07,18,12,33,22.40
2018,07,18,12,34,22.50
2018,07,18,12,35,22.40
2018,07,18,12,36,22.30
2018,07,18,12,37,22.30
2018,07,18,12,38,22.20
2018,07,18,12,39,22.10
2018,07,18,12,40,22.10
2018,07,18,12,41,22.20
2018,07,18,12,42,22.20
2018,07,18,12,43,22.20
2018,07,18,12,44,22.10
2018,07,18,12,45,22.20
2018,07,18,12,46,22.30
2018,07,18,12,47,22.40
2018,07,18,12,48,22.40
2018,07,18,12,49,22.30
2018,07,18,12,50,22.30
2018,07,18,12,51,22.30
2018,07,18,12,52,22.30
2018,07,18,12,53,22.40
2018,07,18,12,54,22.50
2018,07,18,12,55,22.60
2018,07,18,12,56,22.80
2018,07,18,12,57,22.90
2018,07,18,12,58,22.90
2018,07,18,12,59,22.90
2018,07,18,13,00,22.80
2018,07,18,13,01,22.70
2018,07,18,13,02,22.70
2018,07,18,13,03,22.70
2018,07,18,13,04,22.50
2018,07,18,13,05,22.50
2018,07,18,13,06,22.60
2018,07,18,13,07,22.60
2018,07,18,13,08,22.60
2018,07,18,13,09,22.50
2018,07,18,13,10,22.40
2018,07,18,13,11,22.30
2018,07,18,13,12,22.30
2018,07,18,13,13,22.40
2018,07,18,13,14,22.40
2018,07,18,13,15,22.40
2018,07,18,13,16,22.50
2018,07,18,13,17,22.60
2018,07,18,13,18,22.70
2018,07,18,13,19,22.70
2018,07,18,13,20,22.90
2018,07,18,13,21,23.00
2018,07,18,13,22,23.20
2018,07,18,13,23,23.30
2018,07,18,13,24,23.20
2018,07,18,13,25,23.10
2018,07,18,13,26,23.00
2018,07,18,13,27,22.90
2018,07,18,13,28,22.90
2018,07,18,13,29,22.80
2018,07,18,13,30,22.70
2018,07,18,13,31,22.70
2018,07,18,13,32,22.80
2018,07,18,13,33,22.90
2018,07,18,13,34,22.90
2018,07,18,13,35,22.90
2018,07,18,13,36,22.90
2018,07,18,13,37,22.80
2018,07,18,13,38,22.80
2018,07,18,13,39,22.80
2018,07,18,13,40,22.70
2018,07,18,13,41,22.70
2018,07,18,13,42,22.80
2018,07,18,13,43,22.80
2018,07,18,13,44,22.80
2018,07,18,13,45,22.80
2018,07,18,13,46,22.80
2018,07,18,13,47,22.70
2018,07,18,13,48,22.70
2018,07,18,13,49,22.70
2018,07,18,13,50,22.90
2018,07,18,13,51,22.90
2018,07,18,13,52,22.90
2018,07,18,13,53,22.90
2018,07,18,13,54,22.90
2018,07,18,13,55,22.90
2018,07,18,13,56,22.90
2018,07,18,13,57,23.00
2018,07,18,13,58,22.90
2018,07,18,13,59,22.90
2018,07,18,14,00,23.00
2018,07,18,14,01,23.00
2018,07,18,14,02,23.00
2018,07,18,14,03,22.90
2018,07,18,14,04,22.90
2018,07,18,14,05,22.90
2018,07,18,14,06,23.00
2018,07,18,14,07,23.10
2018,07,18,14,08,23.30
2018,07,18,14,09,23.40
2018,07,18,14,10,23.40
2018,07,18,14,11,23.40
2018,07,18,14,12,23.60
2018,07,18,14,13,23.60
2018,07,18,14,14,23.70
2018,07,18,14,15,23.80
2018,07,18,14,16,23.90
2018,07,18,14,17,23.90
2018,07,18,14,18,23.80
2018,07,18,14,19,23.80
2018,07,18,14,20,23.80
2018,07,18,14,21,23.80
2018,07,18,14,22,23.80
2018,07,18,14,23,23.70
2018,07,18,14,24,23.70
2018,07,18,14,25,23.80
2018,07,18,14,26,23.90
2018,07,18,14,27,24.10
2018,07,18,14,28,24.30
2018,07,18,14,29,24.40
2018,07,18,14,30,24.40
2018,07,18,14,31,24.50
2018,07,18,14,32,24.70
2018,07,18,14,33,24.80
2018,07,18,14,34,24.80
2018,07,18,14,35,24.80
2018,07,18,14,36,24.80
2018,07,18,14,37,24.70
2018,07,18,14,38,24.70
2018,07,18,14,39,24.60
2018,07,18,14,40,24.60
2018,07,18,14,41,24.50
2018,07,18,14,42,24.40
2018,07,18,14,43,24.40
2018,07,18,14,44,24.30
2018,07,18,14,45,24.20
2018,07,18,14,46,24.20
2018,07,18,14,47,24.10
2018,07,18,14,48,24.10
2018,07,18,14,49,24.20
2018,07,18,14,50,24.30
2018,07,18,14,51,24.40
2018,07,18,14,52,24.70
2018,07,18,14,53,24.80
2018,07,18,14,54,25.00
2018,07,18,14,55,25.20
2018,07,18,14,56,25.20
2018,07,18,14,57,25.20
2018,07,18,14,58,25.10
2018,07,18,14,59,25.20
2018,07,18,15,00,25.20
2018,07,18,15,01,25.30
2018,07,18,15,02,25.30
2018,07,18,15,03,25.30
2018,07,18,15,04,25.20
2018,07,18,15,05,25.20
2018,07,18,15,06,25.30
2018,07,18,15,07,25.30
2018,07,18,15,08,25.20
2018,07,18,15,09,25.30
2018,07,18,15,10,25.40
2018,07,18,15,11,25.60
2018,07,18,15,12,25.70
2018,07,18,15,13,25.80
2018,07,18,15,14,26.00
2018,07,18,15,15,26.10
2018,07,18,15,16,26.30
2018,07,18,15,17,26.40
2018,07,18,15,18,26.40
2018,07,18,15,19,26.40
2018,07,18,15,20,26.40
2018,07,18,15,21,26.40
2018,07,18,15,22,26.40
2018,07,18,15,23,26.30
2018,07,18,15,24,26.20
2018,07,18,15,25,26.30
2018,07,18,15,26,26.30
2018,07,18,15,27,26.30
2018,07,18,15,28,26.30
2018,07,18,15,29,26.30
2018,07,18,15,30,26.40
2018,07,18,15,31,26.40
2018,07,18,15,32,26.40
2018,07,18,15,33,26.30
2018,07,18,15,34,26.30
2018,07,18,15,35,26.20
2018,07,18,15,36,26.20
2018,07,18,15,37,26.20
2018,07,18,15,38,26.20
2018,07,18,15,39,26.20
2018,07,18,15,40,26.10
2018,07,18,15,41,26.10
2018,07,18,15,42,26.10
2018,07,18,15,43,26.20
2018,07,18,15,44,26.30
2018,07,18,15,45,26.30
2018,07,18,15,46,26.30
2018,07,18,15,47,26.40
2018,07,18,15,48,26.40
2018,07,18,15,49,26.50
2018,07,18,15,50,26.60
2018,07,18,15,51,26.60
2018,07,18,15,52,26.40
2018,07,18,15,53,26.30
2018,07,18,15,54,26.10
2018,07,18,15,55,26.10
2018,07,18,15,56,26.00
2018,07,18,15,57,25.90
2018,07,18,15,58,25.80
2018,07,18,15,59,25.70
2018,07,18,16,00,25.70
2018,07,18,16,01,25.60
2018,07,18,16,02,25.60
2018,07,18,16,03,25.50
2018,07,18,16,04,25.40
2018,07,18,16,05,25.30
2018,07,18,16,06,25.30
2018,07,18,16,07,25.30
2018,07,18,16,08,25.40
2018,07,18,16,09,25.30
2018,07,18,16,10,25.30
2018,07,18,16,11,25.40
2018,07,18,16,12,25.40
2018,07,18,16,13,25.40
2018,07,18,16,14,25.40
2018,07,18,16,15,25.30
2018,07,18,16,16,25.20
2018,07,18,16,17,25.10
2018,07,18,16,18,25.00
2018,07,18,16,19,24.90
2018,07,18,16,20,24.80
2018,07,18,16,21,24.80
2018,07,18,16,22,24.80
2018,07,18,16,23,24.70
2018,07,18,16,24,24.70
2018,07,18,16,25,24.70
2018,07,18,16,26,24.70
2018,07,18,16,27,24.70
2018,07,18,16,28,24.70
2018,07,18,16,29,24.70
2018,07,18,16,30,24.70
2018,07,18,16,31,24.60
2018,07,18,16,32,24.60
2018,07,18,16,33,24.60
2018,07,18,16,34,24.60
2018,07,18,16,35,24.70
2018,07,18,16,36,24.70
2018,07,18,16,37,24.80
2018,07,18,16,38,24.80
2018,07,18,16,39,24.80
2018,07,18,16,40,24.80
2018,07,18,16,41,24.70
2018,07,18,16,42,24.60
2018,07,18,16,43,24.60
2018,07,18,16,44,24.60
2018,07,18,16,45,24.60
2018,07,18,16,46,24.60
2018,07,18,16,47,24.60
2018,07,18,16,48,24.70
2018,07,18,16,49,24.70
2018,07,18,16,50,24.70
2018,07,18,16,51,24.80
2018,07,18,16,52,24.90
2018,07,18,16,53,25.00
2018,07,18,16,54,25.20
2018,07,18,16,55,25.30
2018,07,18,16,56,25.40
2018,07,18,16,57,25.40
2018,07,18,16,58,25.50
2018,07,18,16,59,25.60
2018,07,18,17,00,25.60
2018,07,18,17,01,25.50
2018,07,18,17,02,25.50
2018,07,18,17,03,25.60
2018,07,18,17,04,25.50
2018,07,18,17,05,25.40
2018,07,18,17,06,25.20
2018,07,18,17,07,25.10
2018,07,18,17,08,25.00
2018,07,18,17,09,24.80
2018,07,18,17,10,24.70
2018,07,18,17,11,24.70
2018,07,18,17,12,24.70
2018,07,18,17,13,24.70
2018,07,18,17,14,24.70
2018,07,18,17,15,24.70
2018,07,18,17,16,24.70
2018,07,18,17,17,24.70
2018,07,18,17,18,24.70
2018,07,18,17,19,24.70